Weather History for PAFE - October, 2012

Change the Weather History Date:

Thursday, October 4, 2012

  Actual Average Record
Temperature  
Mean Temperature 46 °F -  
Max Temperature 48 °F 49 °F 57 °F (2005)
Min Temperature 44 °F 40 °F 30 °F (1997)
Degree Days  
Heating Degree Days 19    
Moisture  
Dew Point 42 °F    
Average Humidity 86    
Maximum Humidity 93    
Minimum Humidity 76    
Precipitation  
Precipitation 0.00 in - - ()
Sea Level Pressure  
Sea Level Pressure 30.54 in    
Wind  
Wind Speed 1 mph (ESE)    
Max Wind Speed 6 mph    
Max Gust Speed -    
Visibility 8 miles    
Events      
Averages and records for this station are not official NWS values.
T = Trace of Precipitation, MM = Missing Value Source: NWS Daily Summary

Daily Weather History Graph

Daily Weather History Graph

Search for Another Location

Airport or City:

Trip Planner

Search our weather history database for the weather conditions in past years. The results will help you decide how hot, cold, wet, or windy it might be!

Date:

Astronomy

Oct. 04, 2012 Rise Set
Actual Time 7:06 AM AKDT 6:20 PM AKDT
Civil Twilight 6:28 AM AKDT 6:58 PM AKDT
Nautical Twilight 5:44 AM AKDT 7:42 PM AKDT
Astronomical Twilight 4:58 AM AKDT 8:27 PM AKDT
Moon 8:04 PM AKDT (10/4) 12:27 PM AKDT (10/4)
Length of Visible Light 12h 29m
Length of Day
11h 13m
Waning Gibbous, 81% of the Moon is Illuminated
Oct 4
Waning Gibbous
Oct 7
Last Quarter
Oct 15
New
Oct 21
First Quarter
Oct 29
Full

Hourly Weather History & Observations

Time (AKDT) Temp. Windchill Dew Point Humidity Pressure Visibility Wind Dir Wind Speed Gust Speed Precip Events Conditions
12:16 AM 44.6 °F 43.1 °F 39.2 °F 81% 30.53 in 10.0 mi North 3.5 mph - N/A   Overcast
12:36 AM 44.6 °F - 39.2 °F 81% 30.53 in 10.0 mi Calm Calm - N/A   Overcast
12:56 AM 44.6 °F 42.2 °F 39.2 °F 81% 30.53 in 10.0 mi ENE 4.6 mph - N/A   Overcast
1:16 AM 44.6 °F 42.2 °F 37.4 °F 76% 30.53 in 10.0 mi East 4.6 mph - N/A   Overcast
1:36 AM 44.6 °F - 37.4 °F 76% 30.53 in 10.0 mi Calm Calm - N/A   Overcast
1:56 AM 44.6 °F - 39.2 °F 81% 30.53 in 10.0 mi Calm Calm - N/A   Overcast
2:16 AM 44.6 °F - 39.2 °F 81% 30.53 in 10.0 mi Calm Calm - N/A   Overcast
2:36 AM 44.6 °F - 39.2 °F 81% 30.53 in 10.0 mi Calm Calm - N/A   Overcast
2:56 AM 44.6 °F - 39.2 °F 81% 30.53 in 10.0 mi Calm Calm - N/A   Overcast
3:16 AM 44.6 °F 42.2 °F 39.2 °F 81% 30.53 in 10.0 mi East 4.6 mph - N/A   Overcast
3:36 AM 44.6 °F - 39.2 °F 81% 30.53 in 10.0 mi Calm Calm - N/A   Overcast
3:56 AM 44.6 °F - 39.2 °F 81% 30.53 in 10.0 mi Calm Calm - N/A   Overcast
4:16 AM 44.6 °F - 37.4 °F 76% 30.53 in 10.0 mi Calm Calm - N/A   Overcast
4:36 AM 44.6 °F - 39.2 °F 81% 30.52 in 10.0 mi Calm Calm - N/A   Overcast
4:56 AM 44.6 °F - 39.2 °F 81% 30.52 in 10.0 mi Calm Calm - N/A   Overcast
5:16 AM 44.6 °F - 39.2 °F 81% 30.53 in 10.0 mi Calm Calm - N/A   Overcast
5:36 AM 44.6 °F - 39.2 °F 81% 30.53 in 10.0 mi Calm Calm - N/A   Overcast
5:56 AM 44.6 °F - 39.2 °F 81% 30.53 in 10.0 mi Calm Calm - N/A   Overcast
6:16 AM 44.6 °F - 39.2 °F 81% 30.52 in 10.0 mi Calm Calm - N/A   Overcast
6:36 AM 44.6 °F - 39.2 °F 81% 30.52 in 10.0 mi Calm Calm - N/A   Overcast
6:56 AM 44.6 °F - 39.2 °F 81% 30.53 in 10.0 mi Calm Calm - N/A   Overcast
7:16 AM 44.6 °F - 39.2 °F 81% 30.53 in 10.0 mi Calm Calm - N/A   Overcast
7:36 AM 44.6 °F - 39.2 °F 81% 30.53 in 10.0 mi Calm Calm - N/A   Overcast
7:56 AM 44.6 °F - 41.0 °F 87% 30.53 in 10.0 mi Calm Calm - N/A   Overcast
8:36 AM 44.6 °F 41.4 °F 41.0 °F 87% 30.53 in 10.0 mi NE 5.8 mph - N/A   Overcast
8:56 AM 44.6 °F - 41.0 °F 87% 30.53 in 10.0 mi Calm Calm - N/A   Overcast
9:16 AM 44.6 °F - 41.0 °F 87% 30.53 in 10.0 mi Calm Calm - N/A   Overcast
9:36 AM 44.6 °F - 41.0 °F 87% 30.53 in 10.0 mi Calm Calm - N/A   Overcast
9:56 AM 44.6 °F - 41.0 °F 87% 30.53 in 9.0 mi Calm Calm - N/A   Overcast
10:16 AM 44.6 °F - 39.2 °F 81% 30.54 in 8.0 mi Calm Calm - N/A   Overcast
10:36 AM 44.6 °F - 39.2 °F 81% 30.54 in 7.0 mi Calm Calm - N/A   Overcast
10:56 AM 44.6 °F - 41.0 °F 87% 30.54 in 10.0 mi Calm Calm - N/A   Overcast
11:16 AM 46.4 °F - 41.0 °F 81% 30.55 in 8.0 mi Calm Calm - N/A   Overcast
11:36 AM 46.4 °F - 39.2 °F 76% 30.55 in 9.0 mi Calm Calm - N/A   Overcast
11:56 AM 46.4 °F - 41.0 °F 81% 30.55 in 10.0 mi Calm Calm - N/A   Overcast
12:16 PM 46.4 °F 45.2 °F 41.0 °F 81% 30.55 in 10.0 mi South 3.5 mph - N/A   Overcast
12:36 PM 46.4 °F - 41.0 °F 81% 30.55 in 10.0 mi Calm Calm - N/A   Overcast
12:56 PM 46.4 °F - 41.0 °F 81% 30.56 in 10.0 mi Calm Calm - N/A   Overcast
1:16 PM 46.4 °F - 42.8 °F 87% 30.55 in 2.0 mi Calm Calm - N/A   Overcast
1:36 PM 46.4 °F 45.2 °F 42.8 °F 87% 30.55 in 4.0 mi South 3.5 mph - N/A   Overcast
1:56 PM 46.4 °F - 44.6 °F 93% 30.55 in 4.0 mi Calm Calm - N/A   Overcast
2:16 PM 46.4 °F - 42.8 °F 87% 30.55 in 9.0 mi Calm Calm - N/A   Overcast
2:36 PM 46.4 °F 45.2 °F 44.6 °F 93% 30.56 in 10.0 mi South 3.5 mph - N/A   Overcast
2:56 PM 46.4 °F 45.2 °F 42.8 °F 87% 30.55 in 10.0 mi South 3.5 mph - N/A   Overcast
3:16 PM 46.4 °F - 44.6 °F 93% 30.55 in 10.0 mi Calm Calm - N/A   Overcast
3:36 PM 48.2 °F - 44.6 °F 87% 30.55 in 10.0 mi Calm Calm - N/A   Overcast
3:56 PM 46.4 °F - 44.6 °F 93% 30.54 in 10.0 mi Calm Calm - N/A   Overcast
4:16 PM 46.4 °F - 44.6 °F 93% 30.53 in 10.0 mi Calm Calm - N/A   Overcast
4:36 PM 48.2 °F - 44.6 °F 87% 30.53 in 10.0 mi Calm Calm - N/A   Overcast
4:56 PM 48.2 °F - 44.6 °F 87% 30.53 in 10.0 mi Calm Calm - N/A   Overcast
5:16 PM 48.2 °F - 44.6 °F 87% 30.53 in 10.0 mi Calm Calm - N/A   Overcast
5:36 PM 48.2 °F - 44.6 °F 87% 30.52 in 10.0 mi Calm Calm - N/A   Overcast
5:56 PM 48.2 °F - 44.6 °F 87% 30.53 in 10.0 mi Calm Calm - N/A   Overcast
6:16 PM 48.2 °F - 44.6 °F 87% 30.53 in 10.0 mi Calm Calm - N/A   Overcast
6:36 PM 48.2 °F - 44.6 °F 87% 30.53 in 4.0 mi Calm Calm - N/A   Overcast
6:56 PM 48.2 °F - 44.6 °F 87% 30.53 in 5.0 mi Calm Calm - N/A   Overcast
7:16 PM 46.4 °F - 44.6 °F 93% 30.53 in 5.0 mi Calm Calm - N/A   Overcast
7:36 PM 48.2 °F - 44.6 °F 87% 30.54 in 9.0 mi Calm Calm - N/A   Overcast
7:56 PM 46.4 °F - 44.6 °F 93% 30.53 in 5.0 mi Calm Calm - N/A   Overcast
8:16 PM 46.4 °F - 44.6 °F 93% 30.54 in 5.0 mi Calm Calm - N/A   Overcast
8:36 PM 46.4 °F - 44.6 °F 93% 30.54 in 4.0 mi Calm Calm - N/A   Overcast
8:56 PM 46.4 °F - 44.6 °F 93% 30.54 in 5.0 mi Calm Calm - N/A   Overcast
9:16 PM 46.4 °F - 44.6 °F 93% 30.54 in 6.0 mi Calm Calm - N/A   Overcast
9:36 PM 46.4 °F - 44.6 °F 93% 30.54 in 7.0 mi Calm Calm - N/A   Overcast
9:56 PM 46.4 °F - 44.6 °F 93% 30.54 in 10.0 mi Calm Calm - N/A   Overcast
10:16 PM 46.4 °F - 42.8 °F 87% 30.54 in 10.0 mi Calm Calm - N/A   Overcast
10:36 PM 46.4 °F - 44.6 °F 93% 30.54 in 6.0 mi Calm Calm - N/A   Overcast
10:56 PM 46.4 °F - 44.6 °F 93% 30.54 in 1.2 mi Calm Calm - N/A   Overcast
11:16 PM 46.4 °F - 44.6 °F 93% 30.55 in 1.0 mi Calm Calm - N/A   Overcast
11:36 PM 46.4 °F - 44.6 °F 93% 30.54 in 0.8 mi Calm Calm - N/A   Overcast
11:56 PM 46.4 °F - 44.6 °F 93% 30.55 in 0.8 mi Calm Calm - N/A   Overcast